User: anonymous   Login
Location: Fours
(44.3167°N, 6.7000°E)
Time: 08:22:00
(UTC+00:00)
Language:

Cosmos 1048 Rocket - Orbit

View from above orbital plane
View from above orbital plane
View from above satellite
View from above satellite

Ground track
Ground track

The orbit data is extracted from the following two-line orbital elements,

1 11112U 78105B   22025.13099291  .00000063  00000-0  29656-4 0  9993
2 11112  74.0327 309.5876 0032599  55.2719 305.1497 14.37350034261532
Epoch (UTC): 25 January 2022 03:08:37
Eccentricity: 0.0032599
inclination: 74.0327°
perigee height: 744 km
apogee height: 790 km
right ascension of ascending node: 309.5876°
argument of perigee: 55.2719°
revolutions per day: 14.37350034
mean anomaly at epoch: 305.1497°
orbit number at epoch: 26153

The dashed part of the orbit path shows where the satellite is in the earth's shadow,  

DLR